Location: São Paulo
(23.5507°S, 46.6334°W)
Time: 12:57:34
(UTC-03:00)

Tiros 1 - Pass Details

Date: 10 February 2026
Orbit: 618 x 649 km, 48.4° (Epoch: 11 March)

Event Time Altitude Azimuth Distance (km) Brightness Sun altitude
Rises 21:12:23 0° 331° (NNW) 2,912 - -30.5°
Reaches altitude 10° 21:14:45 10° 337° (NNW) 2,015 - -31.0°
Maximum altitude 21:19:12 45° 49° (NE) 870 - -31.8°
Drops below altitude 10° 21:23:43 10° 122° (ESE) 2,052 - -32.7°
Sets 21:26:08 0° 128° (SE) 2,971 - -33.1°
